Skip Page Navigation
NASA JPL Caltech
NASA Logo - Jet Propulsion Laboratory + View the NASA Portal
+ Center for Near-Earth Object Studies
JPL Home Earth Solar System Stars & Galaxies Technology
JPL Solar System Dynamics
BODIES ORBITS EPHEMERIDES TOOLS PHYSICAL DATA DISCOVERY FAQ SITE MAP
IMPORTANT: The SSD Announcement email list is now available. Major changes are coming in the near future, including possible hostname and/or URL changes. To be notified of such changes, subscribe to this email list.

Please visit this page for more details.


JPL Small-Body Database Browser
Search: [ help ]  
452351 (2001 TT188)
Classification: Main-belt Asteroid          SPK-ID: 2452351
Ephemeris | Orbit Diagram | Orbital Elements | Mission Design | Physical Parameters | Discovery Circumstances ]

[ show orbit diagram ]
Orbital Elements at Epoch 2458600.5 (2019-Apr-27.0) TDB
Reference: JPL 13 (heliocentric ecliptic J2000)
 Element Value Uncertainty (1-sigma)   Units 
e .1400368167721681 1.0668e-07  
a 2.776527489092264 3.3508e-08 au
q 2.387711417839362 3.0168e-07 au
i 24.45606347004337 1.1073e-05 deg
node 224.0209494314835 1.9411e-05 deg
peri 199.8774502738217 3.2217e-05 deg
M 264.5123044819035 2.6994e-05 deg
tp 2459048.725236200880
(2020-Jul-18.22523620)
0.0001307 TDB
period 1689.862595979564
4.63
3.059e-05
8.375e-08
d
yr
n .2130350721156228 3.8564e-09 deg/d
Q 3.165343560345165 3.82e-08 au
  Orbit Determination Parameters
   # obs. used (total)      117  
   data-arc span      6517 days (17.84 yr)  
   first obs. used      2001-10-14  
   last obs. used      2019-08-18  
   planetary ephem.      DE431  
   SB-pert. ephem.      SB431-N16  
   condition code      0  
   norm. resid. RMS      .69186  
   source      ORB  
   producer      Otto Matic  
   solution date      2019-Sep-24 07:56:57  

Additional Information
 Earth MOID = 1.40731 au 
 Jupiter MOID = 2.24586 au 
 T_jup = 3.191 
[ show covariance matrix ]

Ephemeris | Orbit Diagram | Orbital Elements | Mission Design | Physical Parameters | Discovery Circumstances ]

Physical Parameter Table
Parameter Symbol Value Units Sigma Reference Notes
absolute magnitude H 16.4   n/a MPO456153  

452351 (2001 TT188)          Discovered 2001-Oct-14 by LINEAR at Socorro
Reference: Last Updated: 2016-01-04
Ephemeris | Orbit Diagram | Orbital Elements | Mission Design | Physical Parameters | Discovery Circumstances ]
ABOUT SSD CREDITS/AWARDS PRIVACY/COPYRIGHT GLOSSARY LINKS
FirstGov 2019-Dec-10 16:27 UT
(server date/time)  
NASA Home Page
Site Manager:   Ryan S. Park
Webmaster  Alan B. Chamberlin